Location: Newark
(9.1167°S, 159.8667°E)
Time: 03:29:23
(UTC+00:00)

Envisat - Pass Details

Date: 29 September 2019
Orbit: 764 x 766 km, 98.1° (Epoch: 19 October)

Event Time Altitude Azimuth Distance (km) Brightness Sun altitude
Rises 08:31:56 0° 183° (S) 3,240 6.4 -19.6°
Reaches altitude 10° 08:34:24 10° 191° (S) 2,310 5.7 -20.2°
Maximum altitude 08:39:01 36° 256° (WSW) 1,203 4.6 -21.3°
Drops below altitude 10° 08:43:37 10° 322° (NW) 2,294 5.8 -22.4°
Sets 08:46:05 0° 331° (NNW) 3,215 6.5 -23.0°
